Flag for United Kingdom Weather past 2 weeks in King's Lynn, England, United Kingdom

Now
57 °F

Scattered clouds.


Feels Like: 55 °F
Forecast: 53 / 71 °F
Wind: 8 mph from Southwest

Location: Marham

Current Time: Jul 5, 2015 at 10:21:00 PM

Latest Report: Jul 5, 2015 at 9:50 PM


Visibility: N/A

Pressure: 30.01 "Hg

Humidity: 82%

Dew point: 52 °F

Location of King's LynnLocation

Historic Weather in King's Lynn — Graph

°F

King's Lynn temperature yesterday

Maximum temperature yesterday: 81 °F (at 12:50 PM)
Minimum temperature yesterday: 61 °F (at 12:50 AM)
Average temperature yesterday: 73 °F

Past Weeks' High & Low Weather Summary

 TemperatureHumidityPressure
High91 °F (Jul 1, 1:50 PM)100% (Jun 20, 10:50 PM)30.30 "Hg (Jun 20, 10:50 PM)
Low50 °F (Jun 22, 1:50 AM)26% (Jun 30, 3:50 PM)29.74 "Hg (Jun 22, 1:50 PM)
Average64 °F70%30.04 "Hg
* Reported Jun 20 8:50 PM — Jul 5 8:50 PM, King's Lynn, Weather by CustomWeather, © 2015

Note: Actual official high and low records may vary slightly from our data, if they occured in-between our weather recording intervals... More about our weather records

Advertising

King's Lynn weather history for previous 24 hours

 ConditionsComfort  
Time TempWeatherWind HumidityBarometerVisibility
8:50 PM
Sun, Jul 5
61 °FPassing clouds.10 mph72%29.98 "HgN/A
7:50 PM64 °FPassing clouds.18 mph56%29.98 "HgN/A
6:50 PM64 °FScattered clouds.15 mph56%29.95 "HgN/A
5:50 PM68 °FPassing clouds.21 mph53%29.95 "HgN/A
4:50 PM70 °FScattered showers. Partly sunny.17 mph50%29.95 "HgN/A
3:50 PM70 °FPassing clouds.13 mph57%29.95 "HgN/A
2:50 PM66 °FPartly sunny.9 mph83%29.98 "HgN/A
1:50 PM63 °FPartly sunny.8 mph88%29.98 "HgN/A
12:50 PM61 °FPartly sunny.6 mph94%29.98 "HgN/A
11:50 AM61 °FRain. Overcast.6 mph94%29.98 "HgN/A
10:50 AM64 °FSprinkles. Partly sunny.9 mph83%30.01 "HgN/A
9:50 AM68 °FPartly sunny.6 mph73%30.01 "HgN/A
8:50 AM68 °FPassing clouds.3 mph78%30.01 "HgN/A
7:50 AM64 °FPartly sunny.5 mph83%30.04 "HgN/A
6:50 AM61 °FOvercast.1 mph88%30.07 "HgN/A
5:50 AM59 °FPartly sunny.2 mph88%30.07 "HgN/A
4:50 AM57 °FOvercast.3 mph94%30.07 "HgN/A
3:50 AM59 °FOvercast.1 mph88%30.07 "HgN/A
2:50 AM61 °FPassing clouds.1 mph83%30.09 "HgN/A
1:50 AM64 °FPassing clouds.1 mph73%30.09 "HgN/A
12:50 AM64 °FPassing clouds.6 mph68%30.09 "HgN/A
11:50 PM
Sat, Jul 4
66 °FPartly cloudy.2 mph78%30.09 "HgN/A
10:50 PM68 °FPassing clouds.6 mph69%30.09 "HgN/A
Weather by CustomWeather, © 2015

See weather overviewHow to use our weather pages